AU224 Weather Reports


time (UTC)temp
F
wind
direction
speed
knots
gust
knots
rain 1hr
in
rain 24hr
in
rain mn
in
humidity
%
barometer
mb
20260504120109 71 72 0.0 7.8 0.00 0.00 0.00 42 1009.6
20260504081550 65 0 0.0 5.2 0.00 0.00 0.00 48 1011.7
20260504050125 50 0 0.0 0.0 0.00 0.00 0.00 74 1011.7
20260504044548 49 0 0.0 1.7 0.00 0.00 0.00 73 1011.7
20260504043058 49 0 0.0 0.0 0.00 0.00 0.00 68 1011.8
20260504041557 50 0 0.0 0.0 0.00 0.00 0.00 68 1011.8
20260504040058 50 0 0.0 0.0 0.00 0.00 0.00 67 1011.8
20260504034552 51 0 0.0 0.0 0.00 0.00 0.00 67 1011.8
20260504033050 51 0 0.0 0.0 0.00 0.00 0.00 67 1011.9
20260504031617 51 0 0.0 0.0 0.00 0.00 0.00 67 1012.0
20260504030044 51 0 0.0 0.0 0.00 0.00 0.00 67 1011.9
20260504024546 52 0 0.0 0.0 0.00 0.00 0.00 67 1012.1
20260504023040 52 0 0.0 0.0 0.00 0.00 0.00 66 1012.3
20260504021554 52 0 0.0 0.0 0.00 0.00 0.00 65 1012.2
20260504020055 52 0 0.0 0.0 0.00 0.00 0.00 65 1012.2
20260504014557 52 0 0.0 0.0 0.00 0.00 0.00 65 1012.2
20260504013044 52 0 0.0 0.0 0.00 0.00 0.00 64 1012.3
20260504011553 52 0 0.0 0.0 0.00 0.00 0.00 64 1012.2
20260504010044 53 0 0.0 0.0 0.00 0.00 0.00 63 1012.2
20260504004548 53 0 0.0 0.0 0.00 0.00 0.00 61 1012.2
20260504003047 53 0 0.0 0.0 0.00 0.00 0.00 61 1012.4
20260504001559 54 0 0.0 0.0 0.00 0.00 0.00 61 1012.6
20260504000043 54 0 0.0 0.0 0.00 0.00 0.00 60 1012.6
20260503234548 55 0 0.0 0.0 0.00 0.00 0.00 60 1012.6
20260503233044 55 0 0.0 1.7 0.00 0.00 0.00 60 1012.5
20260503231550 55 360 0.0 2.6 0.00 0.00 0.00 60 1012.3
20260503230042 56 0 0.0 0.0 0.00 0.00 0.00 61 1012.2
20260503224552 56 0 0.0 3.5 0.00 0.00 0.00 61 1012.1
20260503223047 57 0 0.0 0.0 0.00 0.00 0.00 59 1012.1
20260503221543 57 0 0.0 3.5 0.00 0.00 0.00 59 1012.0
20260503220045 58 277 0.9 2.6 0.00 0.00 0.00 58 1011.8
20260503214555 59 0 0.0 5.2 0.00 0.00 0.00 57 1011.7
20260503213117 59 288 2.6 7.0 0.00 0.00 0.00 57 1011.6
20260503211605 60 309 5.2 9.6 0.00 0.00 0.00 55 1011.5
20260503210044 60 281 1.7 7.8 0.00 0.00 0.00 52 1011.2
20260503204602 61 148 0.0 3.5 0.00 0.00 0.00 51 1011.1
20260503203057 62 0 0.0 3.5 0.00 0.00 0.00 50 1010.8
20260503201553 63 0 0.0 5.2 0.00 0.00 0.00 49 1010.8
20260503200045 63 0 0.0 3.5 0.00 0.00 0.00 47 1010.6
20260503194550 63 261 3.5 7.8 0.00 0.00 0.00 46 1010.4
20260503193053 64 0 0.0 0.0 0.00 0.00 0.00 46 1010.2
20260503191601 65 0 0.0 0.0 0.00 0.00 0.00 45 1009.7
20260503190047 66 0 0.0 0.0 0.00 0.00 0.00 44 1009.7
20260503184604 67 0 0.0 0.0 0.00 0.00 0.00 44 1009.6
20260503183048 68 0 0.0 0.0 0.00 0.00 0.00 42 1009.6
20260503181550 69 0 0.0 0.0 0.00 0.00 0.00 41 1009.4
20260503180046 69 0 0.0 0.0 0.00 0.00 0.00 39 1009.4
20260503174600 70 0 0.0 0.0 0.00 0.00 0.00 36 1009.4
20260503173041 71 0 0.0 0.0 0.00 0.00 0.00 35 1009.4
20260503171548 71 0 0.0 0.9 0.00 0.00 0.00 36 1009.4